Lid_Strength_Index
6 6 6 6 6 6 6 6 6 6 5 5 5 5 5 4 4 6 10 8 6 1 1 4 5 6 7 9 9 11 15 16 13 13 12 9 9 8 8 9 8 7 5 4 3
6 6 6 6 6 6 6 6 6 6 6 6 5 5 5 4 6 9 6 2 1 0 6 7 8 7 9 9 10 11 15 14 11 11 11 9 9 8 9 8 8 7 5 4 3
6 6 6 6 6 6 6 6 6 6 6 6 6 5 5 5 10 12 2 1 1 -0 7 7 7 7 10 10 11 12 13 12 10 10 10 10 11 9 10 11 9 8 7 5 4
5 6 6 6 6 6 5 5 6 6 6 6 6 6 5 7 17 11 0 1 -0 2 6 7 8 10 11 11 9 12 11 10 10 9 10 11 9 10 10 9 7 7 7 5 5
5 5 5 6 6 6 6 6 6 6 6 7 6 6 7 12 12 8 2 1 3 5 6 7 9 10 11 11 10 11 10 8 8 8 9 9 10 9 9 8 7 7 7 5 5
5 5 5 6 6 6 6 6 6 6 6 6 6 6 9 15 10 8 9 8 6 6 8 7 8 8 9 10 10 9 9 9 9 9 9 9 9 10 9 7 7 7 7 6 5
5 5 6 6 6 6 5 6 6 6 6 6 6 8 10 12 10 10 8 8 9 8 10 9 8 10 10 11 9 10 12 11 11 10 10 10 10 11 9 8 7 6 6 6 7
5 5 5 5 5 6 6 6 6 6 5 6 6 8 12 7 8 8 8 8 7 8 9 8 8 10 11 10 11 12 13 15 10 9 9 10 12 9 7 8 8 7 7 7 7
6 5 5 5 5 6 6 6 6 6 5 6 8 10 13 5 7 6 6 8 8 8 8 8 10 11 12 14 15 15 15 15 13 9 10 11 13 11 9 8 8 8 8 7 7
6 6 5 5 5 6 6 6 6 6 6 6 7 11 10 11 7 8 8 8 9 8 9 10 12 14 15 15 17 15 16 15 15 12 12 13 13 12 10 9 9 9 8 8 8
6 5 5 5 5 5 7 10 11 13 12 13 12 10 10 8 8 9 9 10 9 10 12 10 15 19 15 12 11 14 15 16 15 12 14 14 14 12 11 11 10 9 8 7 8
5 5 5 4 5 5 10 11 11 11 15 11 11 12 10 10 13 11 8 12 12 15 11 12 15 13 12 13 14 15 16 16 15 13 13 14 14 12 12 11 9 9 7 7 7
5 5 5 4 5 9 11 11 8 9 15 13 11 12 12 10 14 13 10 10 12 13 12 14 13 9 10 11 13 14 15 16 15 13 13 14 15 13 11 10 8 7 7 6 6
4 4 3 2 8 9 10 7 8 8 17 16 12 10 10 10 13 10 9 10 11 13 12 12 11 10 10 11 11 14 12 12 13 15 16 12 18 13 12 11 10 9 8 7 8
3 2 2 2 7 9 7 6 5 6 23 12 10 8 8 10 9 9 9 9 13 12 11 14 13 11 11 11 9 12 9 11 11 13 16 15 17 15 13 12 11 9 8 8 8
2 2 2 4 7 6 6 6 7 17 22 13 10 12 12 10 9 8 9 8 8 10 11 12 10 10 11 10 9 9 11 11 12 13 17 15 15 15 15 12 11 8 7 6 6
2 2 3 4 9 6 6 8 17 19 12 13 12 11 11 12 11 9 9 11 11 13 14 11 11 10 9 11 10 11 13 17 18 18 18 13 15 14 12 10 9 8 7 6 6
2 2 4 5 6 6 7 12 19 15 13 9 11 11 12 12 12 11 10 12 9 10 12 14 15 11 9 10 11 13 13 17 19 19 17 13 17 15 9 8 8 7 7 6 6
3 7 8 6 6 6 10 17 16 13 11 12 11 12 12 11 12 12 13 13 11 10 13 14 14 9 9 9 10 12 14 12 15 15 17 15 14 11 9 9 8 8 8 7 6
8 9 9 6 5 7 11 14 12 8 8 10 14 12 14 14 13 13 13 11 12 10 10 11 15 11 10 8 9 11 10 15 15 19 19 17 17 15 11 11 9 9 9 7 7
9 12 8 5 5 8 15 13 10 7 7 10 11 12 12 13 13 13 13 11 10 10 10 12 13 13 11 12 13 12 14 13 14 15 19 19 17 11 12 10 10 9 8 7 7
9 18 6 2 11 9 13 10 7 8 6 8 8 10 11 11 12 13 13 11 9 10 12 11 14 17 15 12 10 10 13 13 17 18 16 17 17 9 9 9 9 8 7 6 6
14 11 6 7 19 18 10 9 8 9 8 9 9 8 8 11 13 11 10 8 8 10 11 10 13 17 17 13 11 12 11 11 12 14 16 19 17 9 9 9 8 8 7 7 6
11 18 12 8 9 11 13 12 10 7 8 7 8 8 9 11 9 11 10 7 7 8 7 7 12 15 17 15 13 14 13 12 12 17 15 15 15 11 10 10 8 8 7 7 7
10 15 11 17 13 10 10 10 12 11 7 7 9 9 11 13 12 12 10 9 7 7 8 9 14 13 13 12 12 13 13 13 14 13 15 15 15 12 10 10 8 7 7 7 7
12 12 10 11 10 11 10 10 10 9 9 10 11 9 9 12 11 12 11 11 11 9 9 8 13 12 14 12 12 13 12 12 12 11 12 13 15 10 8 7 7 7 7 7 7
6 7 10 11 12 12 12 10 9 9 8 7 9 10 11 9 7 7 7 8 8 10 11 11 12 13 16 12 12 15 13 12 11 11 11 14 12 8 9 8 8 8 7 7 7